| time (UTC) | temp C | wind direction | speed KPH | gust KPH | rain 1hr cm | rain 24hr cm | rain mn cm | humidity % | barometer mb |
| 20260505223108 | 27 | 285 | 4.8 | 16.1 | 0.00 | 0.00 | 0.00 | 28 | 1007.1 |
| 20260505222557 | 27 | 339 | 4.8 | 14.5 | 0.00 | 0.00 | 0.00 | 28 | 1007.1 |
| 20260505222058 | 27 | 260 | 3.2 | 16.1 | 0.00 | 0.00 | 0.00 | 28 | 1007.1 |
| 20260505221600 | 27 | 219 | 3.2 | 16.1 | 0.00 | 0.00 | 0.00 | 27 | 1007.1 |
| 20260505221058 | 27 | 304 | 3.2 | 19.3 | 0.00 | 0.00 | 0.00 | 27 | 1007.0 |
| 20260505220557 | 27 | 265 | 4.8 | 19.3 | 0.00 | 0.00 | 0.00 | 27 | 1007.1 |
| 20260505220100 | 27 | 82 | 3.2 | 16.1 | 0.00 | 0.00 | 0.00 | 27 | 1007.1 |
| 20260505215602 | 27 | 291 | 4.8 | 17.7 | 0.00 | 0.00 | 0.00 | 27 | 1007.1 |
| 20260505215057 | 27 | 315 | 3.2 | 17.7 | 0.00 | 0.00 | 0.00 | 27 | 1006.9 |
| 20260505214604 | 27 | 121 | 3.2 | 14.5 | 0.00 | 0.00 | 0.00 | 27 | 1006.9 |
| 20260505214054 | 27 | 178 | 3.2 | 14.5 | 0.00 | 0.00 | 0.00 | 28 | 1006.9 |
| 20260505213559 | 28 | 335 | 3.2 | 19.3 | 0.00 | 0.00 | 0.00 | 28 | 1006.8 |
| 20260505213056 | 28 | 360 | 4.8 | 19.3 | 0.00 | 0.00 | 0.00 | 27 | 1006.7 |
| 20260505212557 | 28 | 111 | 4.8 | 19.3 | 0.00 | 0.00 | 0.00 | 27 | 1006.6 |
| 20260505212058 | 28 | 62 | 4.8 | 17.7 | 0.00 | 0.00 | 0.00 | 26 | 1006.6 |
| 20260505211634 | 28 | 360 | 6.4 | 17.7 | 0.00 | 0.00 | 0.00 | 26 | 1006.6 |
| 20260505211055 | 28 | 360 | 6.4 | 14.5 | 0.00 | 0.00 | 0.00 | 27 | 1006.6 |
| 20260505210557 | 28 | 304 | 8.0 | 17.7 | 0.00 | 0.00 | 0.00 | 27 | 1006.6 |
| 20260505210059 | 28 | 288 | 6.4 | 17.7 | 0.00 | 0.00 | 0.00 | 28 | 1006.6 |
| 20260505205558 | 28 | 244 | 6.4 | 17.7 | 0.00 | 0.00 | 0.00 | 27 | 1006.6 |
| 20260505205056 | 28 | 26 | 4.8 | 17.7 | 0.00 | 0.00 | 0.00 | 27 | 1006.6 |
| 20260505204557 | 28 | 269 | 6.4 | 17.7 | 0.00 | 0.00 | 0.00 | 26 | 1006.6 |
| 20260505204057 | 28 | 148 | 6.4 | 16.1 | 0.00 | 0.00 | 0.00 | 26 | 1006.7 |
| 20260505203554 | 28 | 346 | 6.4 | 16.1 | 0.00 | 0.00 | 0.00 | 26 | 1006.6 |
| 20260505203124 | 29 | 59 | 4.8 | 27.4 | 0.00 | 0.00 | 0.00 | 27 | 1006.7 |
| 20260505202554 | 29 | 360 | 6.4 | 27.4 | 0.00 | 0.00 | 0.00 | 27 | 1006.7 |
| 20260505202058 | 29 | 317 | 4.8 | 16.1 | 0.00 | 0.00 | 0.00 | 27 | 1006.8 |
| 20260505201558 | 29 | 274 | 3.2 | 12.9 | 0.00 | 0.00 | 0.00 | 28 | 1006.7 |
| 20260505201057 | 28 | 280 | 3.2 | 14.5 | 0.00 | 0.00 | 0.00 | 28 | 1006.8 |
| 20260505200557 | 28 | 283 | 3.2 | 17.7 | 0.00 | 0.00 | 0.00 | 29 | 1006.8 |
| 20260505200057 | 28 | 279 | 6.4 | 17.7 | 0.00 | 0.00 | 0.00 | 28 | 1006.8 |
| 20260505195558 | 29 | 58 | 4.8 | 16.1 | 0.00 | 0.00 | 0.00 | 27 | 1006.8 |
| 20260505195058 | 29 | 360 | 6.4 | 16.1 | 0.00 | 0.00 | 0.00 | 27 | 1006.9 |
| 20260505194558 | 29 | 134 | 6.4 | 16.1 | 0.00 | 0.00 | 0.00 | 27 | 1007.2 |
| 20260505194055 | 29 | 351 | 4.8 | 16.1 | 0.00 | 0.00 | 0.00 | 28 | 1006.9 |
| 20260505193558 | 29 | 40 | 4.8 | 14.5 | 0.00 | 0.00 | 0.00 | 29 | 1007.1 |
| 20260505193102 | 29 | 63 | 3.2 | 14.5 | 0.00 | 0.00 | 0.00 | 29 | 1007.3 |
| 20260505192557 | 29 | 273 | 4.8 | 14.5 | 0.00 | 0.00 | 0.00 | 30 | 1007.3 |
| 20260505192054 | 29 | 296 | 3.2 | 14.5 | 0.00 | 0.00 | 0.00 | 28 | 1007.4 |
| 20260505191603 | 29 | 324 | 3.2 | 12.9 | 0.00 | 0.00 | 0.00 | 29 | 1007.3 |
| 20260505191055 | 29 | 210 | 4.8 | 12.9 | 0.00 | 0.00 | 0.00 | 29 | 1007.5 |
| 20260505190554 | 29 | 175 | 3.2 | 14.5 | 0.00 | 0.00 | 0.00 | 30 | 1007.4 |
| 20260505190054 | 29 | 190 | 4.8 | 14.5 | 0.00 | 0.00 | 0.00 | 28 | 1007.5 |
| 20260505185557 | 29 | 82 | 4.8 | 14.5 | 0.00 | 0.00 | 0.00 | 27 | 1007.6 |
| 20260505185057 | 29 | 109 | 3.2 | 17.7 | 0.00 | 0.00 | 0.00 | 30 | 1007.7 |
| 20260505184555 | 29 | 360 | 3.2 | 17.7 | 0.00 | 0.00 | 0.00 | 29 | 1007.7 |
| 20260505184054 | 29 | 340 | 6.4 | 17.7 | 0.00 | 0.00 | 0.00 | 29 | 1007.9 |
| 20260505183556 | 29 | 296 | 4.8 | 16.1 | 0.00 | 0.00 | 0.00 | 30 | 1007.9 |
| 20260505183059 | 29 | 188 | 4.8 | 14.5 | 0.00 | 0.00 | 0.00 | 30 | 1007.9 |
| 20260505182557 | 29 | 192 | 4.8 | 17.7 | 0.00 | 0.00 | 0.00 | 31 | 1008.0 |
| 20260505182101 | 29 | 360 | 4.8 | 17.7 | 0.00 | 0.00 | 0.00 | 32 | 1007.9 |
| 20260505181559 | 28 | 360 | 4.8 | 14.5 | 0.00 | 0.00 | 0.00 | 32 | 1007.8 |
| 20260505181055 | 28 | 291 | 4.8 | 14.5 | 0.00 | 0.00 | 0.00 | 32 | 1007.9 |
| 20260505180554 | 28 | 360 | 4.8 | 14.5 | 0.00 | 0.00 | 0.00 | 33 | 1008.0 |
| 20260505175557 | 28 | 360 | 3.2 | 14.5 | 0.00 | 0.00 | 0.00 | 34 | 1007.9 |
| 20260505175059 | 28 | 360 | 4.8 | 14.5 | 0.00 | 0.00 | 0.00 | 33 | 1008.1 |
| 20260505174558 | 28 | 112 | 4.8 | 14.5 | 0.00 | 0.00 | 0.00 | 32 | 1008.2 |
| 20260505174057 | 28 | 360 | 6.4 | 14.5 | 0.00 | 0.00 | 0.00 | 33 | 1008.3 |
| 20260505173558 | 28 | 360 | 3.2 | 9.7 | 0.00 | 0.00 | 0.00 | 35 | 1008.3 |
| 20260505173103 | 28 | 360 | 3.2 | 11.3 | 0.00 | 0.00 | 0.00 | 35 | 1008.5 |
| 20260505172600 | 28 | 360 | 4.8 | 11.3 | 0.00 | 0.00 | 0.00 | 35 | 1008.6 |
| 20260505172057 | 28 | 360 | 3.2 | 9.7 | 0.00 | 0.00 | 0.00 | 36 | 1008.7 |
| 20260505171559 | 28 | 360 | 3.2 | 9.7 | 0.00 | 0.00 | 0.00 | 36 | 1008.7 |
| 20260505171057 | 28 | 360 | 3.2 | 8.0 | 0.00 | 0.00 | 0.00 | 35 | 1008.8 |
| 20260505170554 | 28 | 174 | 3.2 | 6.4 | 0.00 | 0.00 | 0.00 | 36 | 1008.9 |
| 20260505170059 | 27 | 315 | 1.6 | 6.4 | 0.00 | 0.00 | 0.00 | 37 | 1008.8 |
| 20260505165555 | 27 | 256 | 3.2 | 14.5 | 0.00 | 0.00 | 0.00 | 38 | 1008.9 |
| 20260505165056 | 27 | 295 | 1.6 | 14.5 | 0.00 | 0.00 | 0.00 | 39 | 1009.1 |
| 20260505164602 | 27 | 311 | 3.2 | 11.3 | 0.00 | 0.00 | 0.00 | 37 | 1009.1 |
| 20260505164057 | 27 | 343 | 3.2 | 11.3 | 0.00 | 0.00 | 0.00 | 39 | 1009.2 |
| 20260505163554 | 27 | 311 | 3.2 | 8.0 | 0.00 | 0.00 | 0.00 | 38 | 1009.2 |
| 20260505163102 | 27 | 333 | 1.6 | 8.0 | 0.00 | 0.00 | 0.00 | 39 | 1009.3 |
| 20260505162554 | 27 | 250 | 1.6 | 8.0 | 0.00 | 0.00 | 0.00 | 40 | 1009.4 |
| 20260505162058 | 26 | 360 | 1.6 | 8.0 | 0.00 | 0.00 | 0.00 | 40 | 1009.5 |
| 20260505161602 | 26 | 360 | 3.2 | 8.0 | 0.00 | 0.00 | 0.00 | 42 | 1009.5 |
| 20260505161057 | 26 | 360 | 1.6 | 6.4 | 0.00 | 0.00 | 0.00 | 43 | 1009.5 |
| 20260505160556 | 26 | 360 | 3.2 | 14.5 | 0.00 | 0.00 | 0.00 | 41 | 1009.6 |
| 20260505160108 | 25 | 360 | 3.2 | 14.5 | 0.00 | 0.00 | 0.00 | 43 | 1009.6 |
| 20260505153058 | 25 | 46 | 1.6 | 6.4 | 0.00 | 0.00 | 0.00 | 44 | 1010.1 |
| 20260505152558 | 24 | 360 | 1.6 | 6.4 | 0.00 | 0.00 | 0.00 | 46 | 1010.1 |
| 20260505152054 | 24 | 52 | 3.2 | 6.4 | 0.00 | 0.00 | 0.00 | 45 | 1010.2 |
| 20260505151558 | 24 | 360 | 1.6 | 6.4 | 0.00 | 0.00 | 0.00 | 46 | 1010.3 |
| 20260505151054 | 23 | 360 | 1.6 | 8.0 | 0.00 | 0.00 | 0.00 | 46 | 1010.2 |
| 20260505150558 | 23 | 360 | 1.6 | 8.0 | 0.00 | 0.00 | 0.00 | 48 | 1010.2 |
| 20260505140557 | 21 | 117 | 1.6 | 6.4 | 0.00 | 0.00 | 0.00 | 54 | 1010.7 |
| 20260505140113 | 21 | 118 | 1.6 | 8.0 | 0.00 | 0.00 | 0.00 | 54 | 1010.6 |
| 20260505124559 | 18 | 360 | 1.6 | 4.8 | 0.00 | 0.00 | 0.00 | 66 | 1010.1 |
| 20260505124055 | 17 | 94 | 1.6 | 6.4 | 0.00 | 0.00 | 0.00 | 67 | 1010.2 |
| 20260505123555 | 17 | 0 | 0.0 | 6.4 | 0.00 | 0.00 | 0.00 | 68 | 1010.3 |
| 20260505123058 | 17 | 105 | 1.6 | 6.4 | 0.00 | 0.00 | 0.00 | 69 | 1010.2 |
| 20260505122555 | 17 | 102 | 0.0 | 3.2 | 0.00 | 0.00 | 0.00 | 71 | 1010.3 |
| 20260505122057 | 17 | 0 | 0.0 | 3.2 | 0.00 | 0.00 | 0.00 | 72 | 1010.3 |
| 20260505121602 | 16 | 111 | 0.0 | 3.2 | 0.00 | 0.00 | 0.00 | 72 | 1010.4 |
| 20260505121058 | 16 | 0 | 0.0 | 3.2 | 0.00 | 0.00 | 0.00 | 74 | 1010.3 |
| 20260505120558 | 16 | 360 | 0.0 | 3.2 | 0.00 | 0.00 | 0.00 | 75 | 1010.5 |
| 20260505120112 | 16 | 0 | 0.0 | 3.2 | 0.00 | 0.00 | 0.00 | 75 | 1010.6 |
| 20260505115555 | 15 | 0 | 0.0 | 3.2 | 0.00 | 0.00 | 0.00 | 76 | 1010.5 |
| 20260505115057 | 15 | 74 | 0.0 | 3.2 | 0.00 | 0.00 | 0.00 | 77 | 1010.5 |
| 20260505114600 | 15 | 360 | 0.0 | 3.2 | 0.00 | 0.00 | 0.00 | 79 | 1010.5 |
| 20260505114054 | 14 | 360 | 0.0 | 3.2 | 0.00 | 0.00 | 0.00 | 79 | 1010.3 |
| 20260505113601 | 14 | 0 | 0.0 | 3.2 | 0.00 | 0.00 | 0.00 | 79 | 1010.3 |
| 20260505113104 | 14 | 0 | 0.0 | 3.2 | 0.00 | 0.00 | 0.00 | 80 | 1010.3 |
| 20260505112555 | 14 | 306 | 0.0 | 3.2 | 0.00 | 0.00 | 0.00 | 80 | 1010.4 |
| 20260505112055 | 13 | 0 | 0.0 | 3.2 | 0.00 | 0.00 | 0.00 | 80 | 1010.3 |
| 20260505111556 | 13 | 311 | 0.0 | 3.2 | 0.00 | 0.00 | 0.00 | 81 | 1010.4 |
| 20260505111058 | 13 | 83 | 0.0 | 3.2 | 0.00 | 0.00 | 0.00 | 81 | 1010.2 |
| 20260505110555 | 13 | 0 | 0.0 | 3.2 | 0.00 | 0.00 | 0.00 | 80 | 1010.2 |
| 20260505102057 | 12 | 0 | 0.0 | 0.0 | 0.00 | 0.00 | 0.00 | 76 | 1010.3 |
| 20260505101604 | 12 | 0 | 0.0 | 1.6 | 0.00 | 0.00 | 0.00 | 76 | 1010.4 |
| 20260505101058 | 12 | 0 | 0.0 | 1.6 | 0.00 | 0.00 | 0.00 | 76 | 1010.3 |
| 20260505100557 | 12 | 0 | 0.0 | 0.0 | 0.00 | 0.00 | 0.00 | 76 | 1010.2 |
| 20260505095557 | 12 | 0 | 0.0 | 3.2 | 0.00 | 0.00 | 0.00 | 75 | 1010.1 |
| 20260505095100 | 12 | 0 | 0.0 | 3.2 | 0.00 | 0.00 | 0.00 | 76 | 1010.0 |
| 20260505094602 | 12 | 0 | 0.0 | 3.2 | 0.00 | 0.00 | 0.00 | 76 | 1009.9 |
| 20260505094055 | 12 | 0 | 0.0 | 3.2 | 0.00 | 0.00 | 0.00 | 76 | 1009.7 |
| 20260505093557 | 12 | 0 | 0.0 | 3.2 | 0.00 | 0.00 | 0.00 | 76 | 1009.7 |
| 20260505093058 | 12 | 0 | 0.0 | 3.2 | 0.00 | 0.00 | 0.00 | 76 | 1009.8 |
| 20260505092557 | 12 | 0 | 0.0 | 3.2 | 0.00 | 0.00 | 0.00 | 76 | 1009.6 |
| 20260505092056 | 12 | 0 | 0.0 | 3.2 | 0.00 | 0.00 | 0.00 | 76 | 1009.6 |
| 20260505091611 | 12 | 0 | 0.0 | 3.2 | 0.00 | 0.00 | 0.00 | 76 | 1009.5 |
| 20260505091056 | 12 | 0 | 0.0 | 3.2 | 0.00 | 0.00 | 0.00 | 76 | 1009.5 |
| 20260505090557 | 12 | 0 | 0.0 | 3.2 | 0.00 | 0.00 | 0.00 | 77 | 1009.5 |
| 20260505090059 | 12 | 0 | 0.0 | 3.2 | 0.00 | 0.00 | 0.00 | 77 | 1009.6 |
| 20260505085555 | 12 | 0 | 0.0 | 3.2 | 0.00 | 0.00 | 0.00 | 77 | 1009.5 |
| 20260505085057 | 12 | 0 | 0.0 | 3.2 | 0.00 | 0.00 | 0.00 | 77 | 1009.5 |
| 20260505084606 | 12 | 0 | 0.0 | 3.2 | 0.00 | 0.00 | 0.00 | 77 | 1009.5 |
| 20260505084055 | 12 | 0 | 0.0 | 3.2 | 0.00 | 0.00 | 0.00 | 77 | 1009.6 |
| 20260505083559 | 12 | 0 | 0.0 | 3.2 | 0.00 | 0.00 | 0.00 | 77 | 1009.5 |
| 20260505083106 | 12 | 0 | 0.0 | 3.2 | 0.00 | 0.00 | 0.00 | 77 | 1009.5 |
| 20260505082555 | 11 | 0 | 0.0 | 1.6 | 0.00 | 0.00 | 0.00 | 77 | 1009.5 |
| 20260505082055 | 12 | 0 | 0.0 | 3.2 | 0.00 | 0.00 | 0.00 | 76 | 1009.5 |
| 20260505081556 | 12 | 0 | 0.0 | 0.0 | 0.00 | 0.00 | 0.00 | 76 | 1009.5 |
| 20260505081055 | 12 | 0 | 0.0 | 0.0 | 0.00 | 0.00 | 0.00 | 76 | 1009.5 |
| 20260505080554 | 12 | 0 | 0.0 | 0.0 | 0.00 | 0.00 | 0.00 | 75 | 1009.6 |
| 20260505080058 | 12 | 0 | 0.0 | 0.0 | 0.00 | 0.00 | 0.00 | 75 | 1009.6 |
| 20260505075555 | 12 | 0 | 0.0 | 0.0 | 0.00 | 0.00 | 0.00 | 75 | 1009.5 |
| 20260505075055 | 12 | 0 | 0.0 | 0.0 | 0.00 | 0.00 | 0.00 | 75 | 1009.5 |
| 20260505074556 | 12 | 0 | 0.0 | 3.2 | 0.00 | 0.00 | 0.00 | 75 | 1009.5 |
| 20260505074056 | 12 | 0 | 0.0 | 3.2 | 0.00 | 0.00 | 0.00 | 75 | 1009.5 |
| 20260505073556 | 12 | 0 | 0.0 | 3.2 | 0.00 | 0.00 | 0.00 | 75 | 1009.5 |
| 20260505073058 | 12 | 0 | 0.0 | 3.2 | 0.00 | 0.00 | 0.00 | 75 | 1009.5 |
| 20260505072600 | 12 | 0 | 0.0 | 3.2 | 0.00 | 0.00 | 0.00 | 74 | 1009.5 |
| 20260505072058 | 12 | 0 | 0.0 | 0.0 | 0.00 | 0.00 | 0.00 | 73 | 1009.5 |
| 20260505071601 | 12 | 0 | 0.0 | 0.0 | 0.00 | 0.00 | 0.00 | 72 | 1009.5 |
| 20260505071055 | 12 | 0 | 0.0 | 0.0 | 0.00 | 0.00 | 0.00 | 72 | 1009.5 |
| 20260505070557 | 12 | 0 | 0.0 | 0.0 | 0.00 | 0.00 | 0.00 | 71 | 1009.5 |
| 20260505070105 | 12 | 0 | 0.0 | 0.0 | 0.00 | 0.00 | 0.00 | 71 | 1009.5 |
| 20260505065556 | 13 | 0 | 0.0 | 0.0 | 0.00 | 0.00 | 0.00 | 71 | 1009.6 |
| 20260505065056 | 13 | 0 | 0.0 | 0.0 | 0.00 | 0.00 | 0.00 | 70 | 1009.5 |
| 20260505064558 | 13 | 0 | 0.0 | 0.0 | 0.00 | 0.00 | 0.00 | 69 | 1009.6 |
| 20260505064055 | 13 | 0 | 0.0 | 0.0 | 0.00 | 0.00 | 0.00 | 69 | 1009.5 |
| 20260505063558 | 13 | 0 | 0.0 | 3.2 | 0.00 | 0.00 | 0.00 | 69 | 1009.5 |
| 20260505063057 | 13 | 0 | 0.0 | 3.2 | 0.00 | 0.00 | 0.00 | 68 | 1009.6 |
| 20260505062602 | 13 | 0 | 0.0 | 0.0 | 0.00 | 0.00 | 0.00 | 68 | 1009.6 |
| 20260505062056 | 13 | 0 | 0.0 | 3.2 | 0.00 | 0.00 | 0.00 | 67 | 1009.6 |
| 20260505061614 | 13 | 0 | 0.0 | 3.2 | 0.00 | 0.00 | 0.00 | 67 | 1009.7 |
| 20260505061057 | 13 | 0 | 0.0 | 3.2 | 0.00 | 0.00 | 0.00 | 67 | 1009.7 |
| 20260505060554 | 14 | 17 | 0.0 | 3.2 | 0.00 | 0.00 | 0.00 | 66 | 1009.6 |
| 20260505060100 | 14 | 0 | 0.0 | 3.2 | 0.00 | 0.00 | 0.00 | 66 | 1009.6 |
| 20260505055557 | 14 | 0 | 0.0 | 3.2 | 0.00 | 0.00 | 0.00 | 66 | 1009.6 |
| 20260505055058 | 14 | 0 | 0.0 | 3.2 | 0.00 | 0.00 | 0.00 | 66 | 1009.7 |
| 20260505054557 | 14 | 16 | 0.0 | 3.2 | 0.00 | 0.00 | 0.00 | 66 | 1009.7 |
| 20260505054057 | 14 | 0 | 0.0 | 3.2 | 0.00 | 0.00 | 0.00 | 66 | 1009.7 |
| 20260505053557 | 14 | 0 | 0.0 | 3.2 | 0.00 | 0.00 | 0.00 | 65 | 1009.8 |
| 20260505053058 | 14 | 0 | 0.0 | 3.2 | 0.00 | 0.00 | 0.00 | 64 | 1009.9 |
| 20260505052555 | 14 | 0 | 0.0 | 3.2 | 0.00 | 0.00 | 0.00 | 63 | 1009.8 |
| 20260505052055 | 15 | 0 | 0.0 | 3.2 | 0.00 | 0.00 | 0.00 | 63 | 1009.9 |
| 20260505051600 | 15 | 0 | 0.0 | 3.2 | 0.00 | 0.00 | 0.00 | 62 | 1009.9 |
| 20260505051055 | 15 | 0 | 0.0 | 3.2 | 0.00 | 0.00 | 0.00 | 61 | 1009.8 |
| 20260505050555 | 15 | 48 | 0.0 | 3.2 | 0.00 | 0.00 | 0.00 | 61 | 1009.9 |
| 20260505041601 | 16 | 293 | 0.0 | 3.2 | 0.00 | 0.00 | 0.00 | 56 | 1009.9 |
| 20260505041058 | 16 | 37 | 0.0 | 3.2 | 0.00 | 0.00 | 0.00 | 55 | 1009.9 |
| 20260505040558 | 16 | 284 | 0.0 | 3.2 | 0.00 | 0.00 | 0.00 | 55 | 1009.9 |
| 20260505040103 | 16 | 311 | 0.0 | 3.2 | 0.00 | 0.00 | 0.00 | 55 | 1010.0 |
| 20260505035557 | 16 | 11 | 0.0 | 3.2 | 0.00 | 0.00 | 0.00 | 54 | 1009.9 |
| 20260505035057 | 16 | 0 | 0.0 | 3.2 | 0.00 | 0.00 | 0.00 | 53 | 1009.9 |
| 20260505034601 | 16 | 61 | 0.0 | 3.2 | 0.00 | 0.00 | 0.00 | 53 | 1009.9 |
| 20260505034101 | 16 | 156 | 0.0 | 3.2 | 0.00 | 0.00 | 0.00 | 52 | 1010.0 |
| 20260505033558 | 16 | 173 | 0.0 | 3.2 | 0.00 | 0.00 | 0.00 | 52 | 1010.0 |
| 20260505033105 | 16 | 300 | 0.0 | 3.2 | 0.00 | 0.00 | 0.00 | 51 | 1010.0 |
| 20260505032554 | 16 | 13 | 0.0 | 4.8 | 0.00 | 0.00 | 0.00 | 51 | 1010.1 |
| 20260505032058 | 16 | 49 | 0.0 | 4.8 | 0.00 | 0.00 | 0.00 | 51 | 1010.1 |
| 20260505031557 | 17 | 286 | 0.0 | 3.2 | 0.00 | 0.00 | 0.00 | 50 | 1010.1 |
| 20260505031054 | 17 | 10 | 0.0 | 3.2 | 0.00 | 0.00 | 0.00 | 50 | 1010.1 |
| 20260505030558 | 17 | 331 | 0.0 | 3.2 | 0.00 | 0.00 | 0.00 | 49 | 1010.0 |
| 20260505030056 | 17 | 311 | 0.0 | 3.2 | 0.00 | 0.00 | 0.00 | 49 | 1010.2 |
| 20260505025558 | 17 | 260 | 0.0 | 3.2 | 0.00 | 0.00 | 0.00 | 49 | 1010.2 |
| 20260505025056 | 17 | 48 | 0.0 | 3.2 | 0.00 | 0.00 | 0.00 | 49 | 1010.2 |
| 20260505024556 | 17 | 119 | 0.0 | 8.0 | 0.00 | 0.00 | 0.00 | 48 | 1010.2 |
| 20260505024058 | 17 | 54 | 0.0 | 8.0 | 0.00 | 0.00 | 0.00 | 47 | 1010.3 |
| 20260505023555 | 17 | 151 | 1.6 | 8.0 | 0.00 | 0.00 | 0.00 | 46 | 1010.1 |
| 20260505023057 | 17 | 0 | 1.6 | 4.8 | 0.00 | 0.00 | 0.00 | 45 | 1010.2 |
| 20260505022556 | 17 | 0 | 0.0 | 4.8 | 0.00 | 0.00 | 0.00 | 44 | 1010.3 |
| 20260505022102 | 17 | 163 | 0.0 | 4.8 | 0.00 | 0.00 | 0.00 | 44 | 1010.2 |
| 20260505021601 | 17 | 50 | 0.0 | 4.8 | 0.00 | 0.00 | 0.00 | 43 | 1010.3 |
| 20260505021054 | 17 | 80 | 0.0 | 4.8 | 0.00 | 0.00 | 0.00 | 43 | 1010.4 |
| 20260505020557 | 17 | 71 | 0.0 | 3.2 | 0.00 | 0.00 | 0.00 | 43 | 1010.3 |
| 20260505020059 | 17 | 90 | 0.0 | 3.2 | 0.00 | 0.00 | 0.00 | 42 | 1010.3 |
| 20260505015557 | 17 | 90 | 0.0 | 3.2 | 0.00 | 0.00 | 0.00 | 42 | 1010.3 |
| 20260505015057 | 17 | 0 | 0.0 | 3.2 | 0.00 | 0.00 | 0.00 | 42 | 1010.1 |
| 20260505014556 | 17 | 106 | 0.0 | 3.2 | 0.00 | 0.00 | 0.00 | 42 | 1010.2 |
| 20260505014054 | 18 | 0 | 0.0 | 3.2 | 0.00 | 0.00 | 0.00 | 42 | 1010.1 |
| 20260505013554 | 18 | 80 | 0.0 | 3.2 | 0.00 | 0.00 | 0.00 | 42 | 1010.0 |
| 20260505013058 | 18 | 74 | 0.0 | 3.2 | 0.00 | 0.00 | 0.00 | 42 | 1010.1 |
| 20260505012555 | 18 | 74 | 0.0 | 3.2 | 0.00 | 0.00 | 0.00 | 41 | 1010.0 |
| 20260505012058 | 18 | 54 | 0.0 | 3.2 | 0.00 | 0.00 | 0.00 | 41 | 1010.0 |
| 20260505011613 | 18 | 0 | 0.0 | 3.2 | 0.00 | 0.00 | 0.00 | 41 | 1010.0 |
| 20260505011059 | 18 | 0 | 0.0 | 3.2 | 0.00 | 0.00 | 0.00 | 40 | 1009.9 |
| 20260505010555 | 18 | 0 | 0.0 | 3.2 | 0.00 | 0.00 | 0.00 | 40 | 1009.7 |
| 20260505010106 | 18 | 0 | 0.0 | 3.2 | 0.00 | 0.00 | 0.00 | 40 | 1009.7 |
| 20260505005555 | 18 | 100 | 0.0 | 4.8 | 0.00 | 0.00 | 0.00 | 40 | 1009.8 |
| 20260505005057 | 19 | 17 | 0.0 | 4.8 | 0.00 | 0.00 | 0.00 | 39 | 1009.6 |
| 20260505004600 | 19 | 0 | 0.0 | 3.2 | 0.00 | 0.00 | 0.00 | 39 | 1009.6 |
| 20260505004055 | 19 | 0 | 0.0 | 3.2 | 0.00 | 0.00 | 0.00 | 39 | 1009.5 |
| 20260505003554 | 19 | 115 | 0.0 | 3.2 | 0.00 | 0.00 | 0.00 | 38 | 1009.4 |
| 20260505003058 | 20 | 10 | 0.0 | 3.2 | 0.00 | 0.00 | 0.00 | 38 | 1009.4 |
| 20260505002554 | 20 | 81 | 0.0 | 3.2 | 0.00 | 0.00 | 0.00 | 38 | 1009.3 |
| 20260505002054 | 20 | 64 | 0.0 | 3.2 | 0.00 | 0.00 | 0.00 | 37 | 1009.2 |
| 20260505001557 | 20 | 254 | 0.0 | 4.8 | 0.00 | 0.00 | 0.00 | 37 | 1009.2 |
| 20260505001055 | 20 | 0 | 0.0 | 4.8 | 0.00 | 0.00 | 0.00 | 36 | 1009.0 |
| 20260505000554 | 20 | 0 | 1.6 | 4.8 | 0.00 | 0.00 | 0.00 | 36 | 1008.9 |
| 20260505000107 | 20 | 246 | 1.6 | 4.8 | 0.00 | 0.00 | 0.00 | 36 | 1008.9 |
| 20260504235558 | 20 | 131 | 1.6 | 3.2 | 0.00 | 0.00 | 0.00 | 36 | 1008.7 |
| 20260504235055 | 21 | 55 | 1.6 | 3.2 | 0.00 | 0.00 | 0.00 | 35 | 1008.7 |
| 20260504234611 | 21 | 289 | 1.6 | 6.4 | 0.00 | 0.00 | 0.00 | 35 | 1008.5 |
| 20260504234057 | 21 | 360 | 1.6 | 6.4 | 0.00 | 0.00 | 0.00 | 35 | 1008.5 |
| 20260504233555 | 21 | 132 | 1.6 | 6.4 | 0.00 | 0.00 | 0.00 | 34 | 1008.3 |
| 20260504233059 | 21 | 71 | 1.6 | 6.4 | 0.00 | 0.00 | 0.00 | 34 | 1008.3 |
| 20260504232555 | 21 | 279 | 1.6 | 6.4 | 0.00 | 0.00 | 0.00 | 34 | 1008.2 |
| 20260504232056 | 21 | 267 | 1.6 | 6.4 | 0.00 | 0.00 | 0.00 | 34 | 1008.1 |
| 20260504231556 | 21 | 315 | 0.0 | 6.4 | 0.00 | 0.00 | 0.00 | 34 | 1008.0 |
| 20260504231055 | 22 | 319 | 1.6 | 6.4 | 0.00 | 0.00 | 0.00 | 33 | 1008.0 |
| 20260504230557 | 22 | 304 | 0.0 | 9.7 | 0.00 | 0.00 | 0.00 | 33 | 1007.9 |
| 20260504230057 | 22 | 304 | 1.6 | 9.7 | 0.00 | 0.00 | 0.00 | 33 | 1007.9 |
| 20260504225555 | 22 | 327 | 3.2 | 9.7 | 0.00 | 0.00 | 0.00 | 33 | 1007.9 |
| 20260504225056 | 22 | 53 | 3.2 | 9.7 | 0.00 | 0.00 | 0.00 | 32 | 1007.9 |
| 20260504224556 | 22 | 313 | 1.6 | 8.0 | 0.00 | 0.00 | 0.00 | 32 | 1008.0 |
| 20260504224054 | 22 | 265 | 1.6 | 6.4 | 0.00 | 0.00 | 0.00 | 32 | 1007.9 |
| 20260504223555 | 22 | 316 | 1.6 | 9.7 | 0.00 | 0.00 | 0.00 | 31 | 1007.9 |